This demonstration page uses our WeatherBlox Daily Observations layout. Learn more.

Left ArrowRight Arrow

Hourly Observations for June 26, 2021

Temp ( °F °C ) Dew Point ( °F °C ) Humidity (%) Winds ( mph kmh ) Pressure ( in mb ) Visibility ( mi km ) Precip ( " mm )
12:15 am 00:15 Clear 63 17 60 15.8 93 93 NNW 6 9 29.82 1010 10 16 N/A
12:35 am 00:35 Clear 62 16.9 60 15.7 93 93 NNW 6 9 29.81 1009 10 16 N/A
12:55 am 00:55 Clear 62 16.7 60 15.6 93 93 NW 8 13 29.81 1010 10 16 N/A
1:15 am 01:15 Clear 62 16.7 60 15.3 92 92 NW 8 13 29.80 1009 10 16 N/A
1:35 am 01:35 Clear 62 16.6 59 15.1 91 91 NW 8 13 29.79 1009 10 16 N/A
1:55 am 01:55 Clear 62 16.5 59 14.8 90 90 NW 8 13 29.80 1009 10 16 N/A
2:15 am 02:15 Clear 61 16.1 58 14.3 89 89 NW 8 13 29.81 1009 10 16 N/A
2:35 am 02:35 Clear 61 15.9 58 14.2 90 90 NW 9 15 29.82 1010 10 16 N/A
2:55 am 02:55 Partly Cloudy 60 15.6 57 14 90 90 NW 6 9 29.82 1010 10 16 N/A
3:15 am 03:15 Mostly Cloudy 60 15.6 57 14 90 90 NW 7 11 29.82 1010 10 16 N/A
3:35 am 03:35 Cloudy 61 15.9 58 14.2 90 90 WNW 7 11 29.82 1010 10 16 N/A
3:55 am 03:55 Cloudy 61 16.3 58 14.5 89 89 WNW 7 11 29.82 1010 10 16 N/A
4:15 am 04:15 Cloudy 61 16.3 58 14.5 89 89 WNW 7 11 29.81 1010 10 16 N/A
4:35 am 04:35 Cloudy 61 16.3 58 14.5 89 89 WNW 8 13 29.81 1010 10 16 N/A
4:55 am 04:55 Cloudy 62 16.5 58 14.5 88 88 NW 9 15 29.81 1010 10 16 N/A
5:15 am 05:15 Cloudy 62 16.5 58 14.5 88 88 NW 7 11 29.80 1009 10 16 N/A
5:35 am 05:35 Cloudy 63 17 57 14.1 83 83 NNW 6 9 29.81 1009 10 16 N/A
5:55 am 05:55 Cloudy 63 17 57 14 83 83 NNW 9 15 29.81 1009 10 16 N/A
6:15 am 06:15 Cloudy 63 17 57 14.1 83 83 NNW 13 20 29.81 1009 10 16 N/A
6:35 am 06:35 Cloudy 63 17.1 58 14.3 84 84 NNW 9 15 29.82 1010 10 16 N/A
6:55 am 06:55 Cloudy 64 17.5 59 14.8 84 84 WNW 8 13 29.82 1010 10 16 N/A
7:15 am 07:15 Cloudy 63 17.3 59 15 86 86 WNW 8 13 29.84 1010 10 16 N/A
7:35 am 07:35 Cloudy 64 17.9 59 15.2 84 84 NW 8 13 29.83 1010 10 16 N/A
7:55 am 07:55 Cloudy 65 18.3 60 15.3 83 83 NNW 10 17 29.82 1010 10 16 N/A
8:15 am 08:15 Cloudy 66 18.9 60 15.3 80 80 NNW 13 20 29.82 1010 10 16 N/A
8:35 am 08:35 Partly Cloudy 69 20.3 60 15.5 74 74 N 15 24 29.81 1009 10 16 N/A
8:55 am 08:55 Partly Cloudy 71 21.4 60 15.5 69 69 N 10 17 29.81 1009 10 16 N/A
9:15 am 09:15 Partly Cloudy 72 22.1 59 15.2 65 65 N 16 26 29.80 1009 10 16 N/A
9:35 am 09:35 Partly Cloudy 71 21.6 60 15.3 68 68 N 17 28 29.82 1010 10 16 N/A
9:55 am 09:55 Partly Cloudy 73 22.7 60 15.4 64 64 N 17 28 29.81 1009 10 16 N/A
10:15 am 10:15 Partly Cloudy 72 22.3 59 15.1 64 64 N 18 30 29.81 1010 10 16 N/A
10:35 am 10:35 Mostly Cloudy 73 22.7 60 15.4 64 64 N 12 19 29.81 1009 10 16 N/A
10:55 am 10:55 Cloudy 73 22.5 58 14.7 61 61 NNW 13 20 29.82 1010 10 16 N/A
11:15 am 11:15 Cloudy 73 22.5 60 15.5 65 65 NNW 14 22 29.82 1010 10 16 N/A
11:35 am 11:35 Cloudy 72 22.4 59 15.1 63 63 NNW 13 20 29.83 1010 10 16 N/A
11:55 am 11:55 Cloudy 72 22.1 58 14.7 63 63 N 15 24 29.84 1011 10 16 N/A
12:15 pm 12:15 Cloudy with Light Rain 71 21.4 59 15 67 67 NNW 16 26 29.85 1011 10 16 N/A
12:35 pm 12:35 Cloudy 70 21.3 60 15.4 69 69 N 10 17 29.85 1011 10 16 N/A
12:55 pm 12:55 Cloudy 73 22.5 58 14.7 61 61 N 13 20 29.84 1011 10 16 N/A
1:15 pm 13:15 Cloudy 71 21.8 58 14.7 64 64 N 9 15 29.85 1011 10 16 N/A
1:35 pm 13:35 Cloudy 72 22.1 58 14.5 62 62 N 7 11 29.84 1011 10 16 N/A
1:55 pm 13:55 Cloudy 72 22.2 58 14.2 61 61 NNW 5 7 29.85 1011 10 16 N/A
2:15 pm 14:15 Cloudy 73 22.9 59 14.9 61 61 NNE 8 13 29.85 1011 10 16 N/A
2:35 pm 14:35 Cloudy 75 24 58 14.2 54 54 N 8 13 29.83 1010 10 16 N/A
2:55 pm 14:55 Cloudy 76 24.6 57 13.8 51 51 NNW 8 13 29.82 1010 10 16 N/A
3:15 pm 15:15 Mostly Cloudy 77 25.2 56 13.3 48 48 NNW 8 13 29.81 1009 10 16 N/A
3:35 pm 15:35 Partly Cloudy 78 25.8 55 12.7 44 44 NNW 12 19 29.80 1009 10 16 N/A
3:55 pm 15:55 Partly Cloudy 77 25.1 55 13 47 47 N 14 22 29.81 1009 10 16 N/A
4:35 pm 16:35 Partly Cloudy 78 25.8 53 11.9 42 42 NNW 10 17 29.80 1009 10 16 N/A
4:55 pm 16:55 Partly Cloudy 79 26.3 54 12.2 42 42 NNW 13 20 29.80 1009 10 16 N/A
5:15 pm 17:15 Partly Cloudy 79 26.3 54 12.1 41 41 NNW 13 20 29.80 1009 10 16 N/A
5:35 pm 17:35 Partly Cloudy 78 25.5 54 12.2 44 44 NNW 14 22 29.81 1009 10 16 N/A
5:55 pm 17:55 Partly Cloudy 78 25.8 53 11.7 41 41 NNW 13 20 29.80 1009 10 16 N/A
6:15 pm 18:15 Partly Cloudy 79 25.9 54 12 42 42 NNW 10 17 29.80 1009 10 16 N/A
6:35 pm 18:35 Partly Cloudy 79 26.2 53 11.6 40 40 N 12 19 29.79 1009 10 16 N/A
6:55 pm 18:55 Sunny 79 26 53 11.6 41 41 NNW 15 24 29.79 1009 10 16 N/A
7:15 pm 19:15 Sunny 78 25.6 52 11.1 40 40 NNW 9 15 29.81 1009 10 16 N/A
7:35 pm 19:35 Sunny 78 25.5 52 11.3 41 41 N 7 11 29.81 1009 10 16 N/A
7:55 pm 19:55 Sunny 77 25 54 12.1 45 45 NNW 5 7 29.82 1010 10 16 N/A
8:15 pm 20:15 Sunny 75 24.1 55 12.5 48 48 NNW 6 9 29.84 1010 10 16 N/A
8:35 pm 20:35 Sunny 73 22.8 57 14 58 58 NNW 3 6 29.85 1011 10 16 N/A
8:55 pm 20:55 Sunny 70 21.3 59 14.8 67 67 NNW 5 7 29.86 1011 10 16 N/A
9:15 pm 21:15 Clear 68 20.1 58 14.7 71 71 NNW 3 6 29.87 1012 10 16 N/A
9:35 pm 21:35 Clear 67 19.5 59 15 75 75 NNW 3 6 29.89 1012 10 16 N/A
9:55 pm 21:55 Clear 65 18.3 59 14.8 80 80 N N/A 29.90 1012 10 16 N/A
10:15 pm 22:15 Clear 64 17.7 58 14.3 81 81 N N/A 29.92 1013 10 16 N/A
10:35 pm 22:35 Clear 63 17.4 57 14 81 81 N N/A 29.92 1013 7 11 N/A
10:55 pm 22:55 Clear 62 16.8 56 13.5 81 81 N N/A 29.93 1014 10 16 N/A
11:15 pm 23:15 Clear 62 16.8 56 13.5 81 81 N N/A 29.94 1014 10 16 N/A
11:35 pm 23:35 Clear 61 16.1 56 13.5 85 85 W 6 9 29.95 1014 10 16 N/A
11:55 pm 23:55 Clear 60 15.6 56 13.1 85 85 NNE 3 6 29.95 1014 10 16 N/A

Powered by AerisWeather